カタログに戻る

STARLINK-3447

運用中通信VLEO
NORAD 51736·PAYLOAD·🇺🇸 United States

打ち上げ Feb 21, 2022 から Cape Canaveral Space Force Station

Loading…

次のパス (今後24時間)

TLE

最新Source: CelesTrak SupGP

元期: Sep 15, 2026, 02:40 UTC

1 51736C 22016Y   26258.11159722 -.00016497  00000+0 -53051-3 0  2587
2 51736  53.1569 175.9304 0001363  88.4723 176.3674 15.31710210    13

AllMySatでSTARLINK-3447をリアルタイム追跡

Download on the App Store